CAPE
0 0 0 0 0 0 0 0 0 0 0 0 0 0 0 0 0 0 0 0 0 0 0 0 0 0 0 0 0 0 0 0 0 0 0 0 0 0 0 0 0 0 0
0 0 0 0 0 0 0 0 0 0 0 0 0 0 0 0 0 0 0 0 0 0 0 0 0 0 0 0 0 0 0 0 0 0 0 0 0 0 0 0 0 0 0
0 0 0 0 0 0 0 0 0 0 0 0 0 0 0 0 0 0 0 0 0 0 0 0 0 0 0 0 0 0 0 0 0 0 0 0 0 0 0 0 0 0 0
0 0 0 0 0 0 0 0 0 0 0 0 0 0 0 0 0 0 0 0 0 0 0 0 0 0 0 0 0 0 0 0 0 0 0 0 0 0 0 0 0 0 0
0 0 0 0 0 0 0 0 0 0 0 0 0 0 0 0 0 0 0 0 0 0 0 0 0 0 0 0 0 0 0 0 0 0 0 0 0 0 0 0 0 0 0
0 0 0 0 0 0 0 0 0 0 0 0 0 0 0 0 0 0 0 0 0 0 0 0 0 0 0 0 0 0 0 0 0 0 0 0 0 0 0 0 0 0 0
0 0 0 0 0 0 0 0 0 0 0 0 0 0 0 0 0 0 0 0 0 0 0 0 0 0 0 0 0 0 0 0 0 0 0 0 0 0 0 0 0 0 0
0 0 0 0 0 0 0 0 0 0 0 0 0 0 0 0 0 0 0 0 0 0 0 0 0 0 0 0 0 0 0 0 0 0 0 0 0 0 0 0 1 0 0
0 0 0 0 0 0 0 0 0 0 0 0 0 0 0 0 0 0 0 0 0 0 0 0 0 0 0 0 0 0 0 0 0 1 0 0 0 2 1 0 0 0 0
0 0 0 0 0 0 0 0 0 0 0 0 0 0 0 0 0 0 2 0 0 0 0 0 0 0 0 0 0 0 0 1 0 0 0 2 2 0 0 0 0 0 0
0 0 0 0 0 0 0 0 0 0 0 0 0 0 0 0 0 0 3 0 0 0 0 0 0 0 0 3 3 0 0 0 0 0 0 0 0 0 0 0 0 0 0
0 0 0 0 0 0 0 0 0 0 0 0 0 0 0 0 0 0 0 31 1 0 0 0 0 0 4 9 7 1 1 1 0 0 0 0 0 0 0 0 0 0 0
0 0 0 0 0 0 0 0 0 0 0 0 0 0 0 0 0 4 5 16 6 0 0 0 0 0 9 14 12 6 1 0 0 0 0 0 0 0 0 0 0 0 0
0 0 0 0 0 0 0 0 0 3 1 0 0 0 0 0 0 0 2 6 2 2 1 0 2 7 7 3 5 8 0 0 0 0 0 0 0 0 0 0 0 0 0
0 0 0 0 0 0 0 0 3 7 5 1 0 0 0 0 0 1 2 0 0 0 0 0 0 0 2 0 0 0 0 0 0 0 0 0 0 0 0 0 0 0 0
0 1 1 2 3 4 5 4 4 8 9 21 20 11 0 3 5 12 12 16 12 9 0 0 0 0 0 0 0 0 0 0 0 0 0 0 0 0 0 0 0 0 0
0 1 2 5 4 3 5 10 4 1 11 18 20 19 26 7 4 21 23 20 30 16 0 0 0 0 0 0 0 0 0 0 0 0 0 0 0 0 0 0 0 0 0
0 0 0 1 1 2 5 5 5 5 4 2 1 2 17 26 28 17 29 25 2 17 0 0 0 0 0 0 0 0 0 0 0 0 0 0 0 0 0 0 0 0 0
0 0 0 0 0 2 3 5 3 2 1 5 0 0 1 31 33 15 30 5 0 2 0 0 0 0 0 0 0 0 0 0 0 0 0 0 0 0 0 0 0 0 0
0 1 1 0 0 0 1 1 2 3 4 2 0 0 0 7 8 0 5 2 1 0 0 0 0 0 0 0 0 0 0 0 0 0 0 0 0 0 0 0 0 0 0
0 0 0 0 0 0 0 0 1 2 4 0 0 0 6 10 1 0 1 0 0 0 0 0 0 0 0 0 0 0 0 0 0 0 0 0 0 0 0 0 0 0 0
0 0 0 0 0 0 0 0 1 2 0 0 0 0 11 8 0 0 0 0 0 0 0 0 0 0 0 0 0 0 0 0 0 0 0 0 0 0 0 0 0 0 0
0 0 0 0 0 0 0 0 0 0 0 0 0 1 1 0 0 0 0 0 0 0 0 0 0 0 0 0 0 0 0 0 0 0 0 0 0 0 0 0 0 0 0
0 0 0 0 0 0 0 0 0 0 0 0 0 0 0 0 0 0 0 0 0 0 0 0 0 0 0 0 0 0 0 0 0 0 0 0 0 0 0 0 0 0 0
0 0 0 0 0 0 0 0 0 0 0 0 0 0 0 0 0 0 0 0 0 0 0 0 0 0 0 0 0 0 0 0 0 0 0 0 0 0 0 0 0 0 0
0 0 0 0 0 0 0 0 0 0 0 0 0 0 0 0 0 0 0 0 0 0 0 0 0 0 0 0 0 0 0 0 0 0 0 0 0 0 0 0 0 0 0
CIN
0 0 0 0 0 0 0 0 0 0 0 0 0 0 0 0 0 0 0 0 0 0 0 0 0 0 0 0 0 0 0 0 0 0 0 0 0 0 0 0 0 0 0
0 0 0 0 0 0 0 0 0 0 0 0 0 0 0 0 0 0 0 0 0 0 0 0 0 0 0 0 0 0 0 0 0 0 0 0 0 0 0 0 0 0 0
0 0 0 0 0 0 0 0 0 0 0 0 0 0 0 0 0 0 0 0 0 0 0 0 0 0 0 0 0 0 0 0 0 0 0 0 0 0 0 0 0 0 0
0 0 0 0 0 0 0 0 0 0 0 0 0 0 0 0 0 0 0 0 0 0 0 0 0 0 0 0 0 0 0 0 0 0 0 0 0 0 0 0 0 0 0
0 0 0 0 0 0 0 0 0 0 0 0 0 0 0 0 0 0 0 0 0 0 0 0 0 0 0 0 0 0 0 0 0 0 0 0 0 0 0 0 0 0 0
0 0 0 0 0 0 0 0 0 0 0 0 0 0 0 0 0 0 0 0 0 0 0 0 0 0 0 0 0 0 0 0 0 0 0 0 0 0 0 0 0 0 0
0 0 0 0 0 0 0 0 0 0 0 0 0 0 0 0 0 0 0 0 0 0 0 0 0 0 0 0 0 0 0 0 0 0 0 0 0 0 0 0 0 0 0
0 0 0 0 0 0 0 0 0 0 0 0 0 0 0 0 0 0 0 0 0 0 0 0 0 0 0 0 0 0 0 0 0 0 0 0 0 0 0 0 0 0 0
0 0 0 0 0 0 0 0 0 0 0 0 0 0 0 0 0 0 0 0 0 0 0 0 0 0 0 0 0 0 0 0 0 0 0 0 0 0 0 0 0 0 0
0 0 0 0 0 0 0 0 0 0 0 0 0 0 0 0 0 0 0 0 0 0 0 0 0 0 0 0 0 0 0 0 0 0 0 0 -1 0 0 0 0 0 0
0 0 0 0 0 0 0 0 0 0 0 0 0 0 0 0 0 0 0 0 0 0 0 0 0 0 0 0 0 0 0 0 0 0 0 0 0 0 0 0 0 0 0
0 0 0 0 0 0 0 0 0 0 0 0 0 0 0 0 0 0 0 0 0 0 0 0 0 0 0 0 0 0 0 0 0 0 0 0 0 0 0 0 0 0 0
0 0 0 0 0 0 0 0 0 -1 0 0 0 0 0 0 0 0 0 0 0 0 0 0 0 0 0 0 0 0 0 0 0 0 0 0 0 0 0 0 0 0 0
0 0 0 0 0 0 0 0 0 0 0 0 0 0 0 0 0 0 0 0 0 0 0 0 0 0 0 0 0 0 0 0 0 0 0 0 0 0 0 0 0 0 0
0 0 0 0 0 0 0 0 0 0 0 0 0 0 0 0 0 0 0 0 0 0 0 0 0 0 0 0 0 0 0 0 0 0 0 0 0 0 0 0 0 0 0
0 0 0 0 0 0 0 0 0 0 0 0 0 0 0 0 0 0 0 0 0 0 0 0 0 0 0 0 0 0 0 0 0 0 0 0 0 0 0 0 0 0 0
0 0 0 0 0 0 0 0 0 0 0 0 0 0 0 0 0 0 0 0 0 0 0 0 0 0 0 0 0 0 0 0 0 0 0 0 0 0 0 0 0 0 0
0 0 -1 0 0 0 0 0 0 0 0 -1 0 0 0 0 0 0 0 0 0 0 0 0 0 0 0 0 0 0 0 0 0 0 0 0 0 0 0 0 0 0 0
0 0 0 0 0 0 0 0 0 0 0 0 0 0 0 0 0 0 0 0 0 0 0 0 0 0 0 0 0 0 0 0 0 0 0 0 0 0 0 0 0 0 0
0 0 0 0 0 0 0 0 0 0 0 -1 0 0 0 0 0 0 0 -1 0 0 0 0 0 0 0 0 0 0 0 0 0 0 0 0 0 0 0 0 0 0 0
0 0 0 0 0 0 0 0 0 0 0 0 0 0 0 0 -1 0 0 0 0 0 0 0 0 0 0 0 0 0 0 0 0 0 0 0 0 0 0 0 0 0 0
0 0 0 0 0 0 0 0 0 0 0 0 0 0 0 0 0 0 0 0 0 0 0 0 0 0 0 0 0 0 0 0 0 0 0 0 0 0 0 0 0 0 0
0 0 0 0 0 0 0 0 0 0 0 0 0 0 0 0 0 0 0 0 0 0 0 0 0 0 0 0 0 0 0 0 0 0 0 0 0 0 0 0 0 0 0
0 0 0 0 0 0 0 0 0 0 0 0 0 0 0 0 0 0 0 0 0 0 0 0 0 0 0 0 0 0 0 0 0 0 0 0 0 0 0 0 0 0 0
0 0 0 0 0 0 0 0 0 0 0 0 0 0 0 0 0 0 0 0 0 0 0 0 0 0 0 0 0 0 0 0 0 0 0 0 0 0 0 0 0 0 0
0 0 0 0 0 0 0 0 0 0 0 0 0 0 0 0 0 0 0 0 0 0 0 0 0 0 0 0 0 0 0 0 0 0 0 0 0 0 0 0 0 0 0
Wind_Speed
15 12 8 8 8 7 9 9 10 8 10 12 14 14 15 16 15 15 15 15 16 14 11 13 12 11 8 8 7 6 6 4 4 3 3 5 5 4 3 3 3 5 4
15 14 13 9 8 9 11 10 8 11 10 12 13 15 15 16 17 19 18 16 19 18 17 15 14 10 12 11 8 10 9 7 4 6 4 5 5 3 3 5 3 4 7
13 14 15 15 11 9 11 10 8 10 12 13 13 15 16 17 17 18 19 17 18 18 19 19 17 17 14 11 11 10 9 8 6 4 4 2 2 2 2 2 4 6 8
13 11 10 12 14 14 13 10 7 10 12 13 14 16 17 16 17 18 18 19 19 18 18 19 19 21 19 18 14 13 10 9 8 7 5 4 4 4 4 4 4 4 8
13 12 12 12 12 11 12 12 10 9 12 12 14 15 15 17 15 18 18 19 19 18 17 17 17 20 27 23 14 14 14 10 9 8 6 5 5 5 7 4 5 5 10
10 11 11 11 13 13 13 12 11 11 10 11 13 14 16 14 24 30 24 18 18 18 17 16 15 19 25 29 26 26 21 17 14 9 9 9 11 7 6 6 5 4 4
11 10 9 12 13 14 15 14 12 11 10 12 13 14 17 17 25 28 31 17 18 19 18 17 14 13 17 16 24 24 24 25 19 14 12 11 10 10 8 8 7 6 5
11 11 12 14 17 15 14 15 14 10 11 11 12 14 14 13 25 27 28 17 16 19 19 20 20 19 21 19 18 16 15 15 15 12 11 9 8 9 9 7 5 4 5
11 11 12 13 15 13 13 15 15 13 12 11 10 12 14 14 24 26 25 19 16 18 17 17 18 18 27 31 18 17 14 13 19 21 15 14 14 15 12 4 3 2 1
11 11 11 13 15 15 15 14 12 12 14 9 10 10 12 14 21 26 25 14 14 13 17 18 25 22 33 34 19 18 17 16 14 12 11 14 11 6 8 6 5 4 3
8 10 12 12 14 14 15 15 15 14 12 11 11 10 9 11 12 25 30 17 13 12 11 11 12 29 33 33 24 15 15 14 18 10 8 6 6 6 5 6 6 6 4
9 12 14 15 13 13 16 16 16 13 13 13 10 10 8 10 16 24 29 31 21 13 13 10 12 31 31 33 25 21 22 16 9 9 8 8 7 6 6 6 6 5 5
11 15 17 16 15 15 15 17 14 13 10 11 9 10 10 9 9 24 26 29 28 13 9 14 21 30 30 28 29 25 20 9 9 8 8 7 6 6 7 5 3 3 5
16 19 17 17 17 16 13 13 13 13 11 11 10 11 9 8 9 9 11 14 22 18 18 12 16 21 21 18 19 19 10 10 10 9 8 6 5 4 5 4 3 2 2
19 18 18 15 17 16 15 14 13 15 14 12 12 10 10 11 12 15 16 13 12 15 14 11 11 13 12 10 8 10 10 9 9 8 8 7 6 5 4 3 2 1 1
19 15 14 13 13 13 14 15 25 31 35 32 30 23 10 22 20 22 27 28 25 31 14 14 13 14 14 14 12 10 8 9 8 8 8 7 7 6 4 3 1 2 3
18 17 14 15 13 13 13 13 15 16 29 28 29 29 29 19 22 21 27 29 29 31 13 13 15 14 12 11 11 12 9 9 10 8 8 8 7 6 5 3 1 3 4
18 22 15 14 13 13 13 13 12 13 14 10 16 22 24 26 23 22 23 24 17 23 12 12 13 13 12 13 12 10 10 10 9 9 8 8 7 6 4 3 2 3 4
16 14 14 13 13 15 13 14 13 14 14 13 8 12 14 22 23 22 23 13 11 14 10 10 11 12 12 11 10 9 10 9 8 7 7 6 6 5 4 3 3 5 6
15 21 19 13 13 13 12 12 12 13 13 11 8 8 6 8 9 10 10 10 9 10 10 10 9 9 10 10 10 10 9 9 8 5 6 5 5 4 3 3 3 4 5
12 13 18 14 13 12 12 12 11 11 11 7 7 7 14 9 8 8 8 8 6 10 11 10 9 8 8 9 10 9 9 8 7 6 6 5 5 4 4 4 3 4 6
11 11 11 12 11 11 11 10 11 11 8 7 6 7 18 8 5 6 5 8 8 9 10 10 9 8 8 9 10 9 8 8 7 6 6 5 4 3 3 3 4 5 6
11 12 11 11 9 10 8 9 6 4 5 5 5 5 1 5 9 9 9 8 8 9 9 10 10 9 7 8 7 8 9 7 6 6 6 5 4 4 4 4 4 5 6
10 11 10 9 8 7 5 4 3 2 4 6 6 6 7 6 10 10 9 8 9 9 9 10 9 11 9 7 5 5 5 5 5 6 6 5 5 4 3 5 6 8 9
10 10 10 10 9 9 8 8 8 8 7 7 7 7 8 8 10 10 9 9 9 10 11 10 8 11 10 9 7 6 6 8 6 7 5 4 5 5 6 6 8 8 10
10 10 9 9 9 9 8 8 8 8 8 7 7 8 8 9 9 10 9 10 9 10 10 7 8 10 10 7 7 7 8 9 8 9 6 6 6 7 7 9 9 7 9
Wind_Direction
4 357 315 285 260 243 236 222 213 200 191 189 190 196 199 194 190 195 195 186 188 183 185 185 182 170 176 177 173 171 175 172 163 148 204 175 209 210 259 292 283 295 291
348 353 355 321 278 257 250 238 208 206 200 201 197 194 198 203 196 195 197 193 190 187 184 181 182 169 177 178 180 182 181 177 155 176 179 190 199 244 282 304 308 291 290
351 347 348 354 344 293 269 253 221 221 208 206 203 202 200 204 204 204 199 197 202 197 187 185 181 175 178 179 183 181 181 173 171 155 176 240 253 321 311 297 321 312 301
346 343 341 342 339 337 317 288 244 229 222 216 215 210 204 200 208 205 205 201 197 199 193 192 183 183 180 176 180 179 175 173 174 177 180 203 245 256 258 291 306 297 287
337 339 338 336 333 330 324 317 283 240 235 222 224 222 217 206 199 201 206 207 204 199 196 194 191 191 185 180 173 175 170 170 171 176 185 185 202 200 205 188 247 272 273
325 327 322 330 335 335 330 327 311 280 254 238 228 224 223 223 216 204 198 201 202 200 197 197 190 187 188 184 186 180 175 169 175 172 188 205 200 202 197 213 223 238 264
322 326 323 327 330 331 331 330 320 295 267 245 238 232 230 229 225 214 205 203 196 198 197 192 187 185 184 184 189 188 192 191 183 174 184 198 187 194 194 205 214 234 245
319 323 332 333 328 323 327 323 315 301 272 250 244 238 238 236 231 222 209 205 207 202 198 194 191 182 183 177 177 181 189 195 191 190 189 189 185 189 208 206 199 239 271
308 314 321 323 317 310 311 312 310 298 278 255 247 238 238 242 234 223 209 206 205 207 196 197 193 189 184 178 173 173 180 191 198 199 192 196 202 208 210 167 202 199 273
294 305 310 308 304 305 306 293 288 277 272 267 258 242 235 242 235 230 215 202 217 210 187 189 194 186 186 182 177 175 182 185 180 189 195 207 206 192 212 207 176 181 189
282 297 300 294 295 296 295 299 292 291 288 272 259 255 237 232 234 229 223 211 197 196 201 195 189 191 189 185 178 185 185 166 180 174 171 168 187 207 204 199 186 176 176
286 292 295 297 293 294 293 289 283 275 270 268 265 264 242 230 222 228 226 219 205 199 199 189 187 190 191 185 177 186 182 162 163 159 167 185 199 203 198 191 186 189 216
288 290 293 292 289 287 284 284 284 269 256 262 250 249 244 230 224 230 237 228 199 195 190 189 187 189 190 189 178 181 179 155 158 152 180 190 193 183 185 187 187 222 257
294 291 291 288 290 285 280 276 275 268 260 253 248 246 242 233 217 217 225 229 199 188 186 182 186 188 189 181 179 179 154 160 166 160 169 163 168 193 209 188 177 185 265
290 290 291 289 285 284 275 274 269 269 254 255 252 245 236 232 226 207 212 220 184 172 156 156 176 175 178 177 157 135 140 145 152 152 150 169 174 196 208 194 185 132 231
290 288 286 287 286 284 284 283 272 273 272 253 254 249 235 243 247 220 217 215 189 172 163 165 180 179 167 164 155 148 153 149 153 150 165 170 174 189 182 197 192 236 268
284 286 284 281 279 278 277 278 286 285 282 262 257 256 247 237 235 230 223 215 191 178 183 178 176 173 168 165 162 156 164 163 152 158 170 169 173 171 179 187 224 261 284
281 280 279 276 273 272 269 268 267 270 275 260 256 260 259 242 225 222 219 217 181 188 189 183 178 172 159 157 161 162 151 156 162 167 165 168 166 164 165 185 223 272 295
284 278 274 270 268 266 267 269 270 273 271 271 257 262 272 242 235 203 211 222 197 188 176 172 165 159 162 160 154 154 151 156 162 160 160 161 159 159 167 188 229 268 287
283 278 273 272 268 264 260 261 264 262 265 253 249 252 248 237 225 188 195 213 219 179 157 154 157 154 156 149 142 139 139 141 147 162 154 156 157 168 175 194 232 262 279
287 282 274 270 264 262 261 258 258 262 262 247 248 247 239 236 211 181 186 199 154 145 145 131 133 132 131 130 128 131 134 141 157 159 154 165 166 175 193 214 239 262 270
292 288 284 278 268 257 254 256 255 257 251 247 251 246 255 244 182 158 106 99 112 115 116 120 115 116 130 136 131 134 144 151 156 163 165 165 179 202 195 228 244 259 268
307 306 304 299 292 276 247 255 251 242 245 246 250 255 246 86 87 89 94 98 100 101 105 108 112 110 111 111 124 141 149 160 168 158 163 180 188 202 205 241 252 252 260
326 326 328 333 342 352 354 352 339 331 64 63 68 69 75 78 91 91 93 96 94 94 99 103 107 116 114 112 120 118 113 123 140 165 174 186 200 204 219 238 244 247 257
345 347 349 352 359 6 14 24 34 41 49 55 63 69 76 85 89 93 95 97 98 98 92 98 102 118 123 132 141 150 161 170 171 182 185 193 222 228 233 236 248 252 264
356 1 4 4 7 10 19 25 33 37 44 51 61 68 76 82 85 90 92 91 92 90 95 98 114 120 129 139 154 171 188 194 194 199 186 199 222 237 231 237 244 258 264